Flag for Mexico Weather past 2 weeks in Mexico City, Federal District, Mexico

Now
57 °F

Clear.


Feels Like: 57 °F
Forecast: 58 / 81 °F
Wind: 3 mph from Northeast

Location: Mexico City / Licenci

Current Time: Apr 26, 2015 at 8:39:11 AM

Latest Report: Apr 26, 2015 at 7:47 AM


Visibility: 7 mi

Pressure: 30.26 "Hg

Humidity: 63%

Dew point: 45 °F

Location of Mexico CityLocation

Historic Weather in Mexico City — Graph

°F

Mexico City temperature yesterday

Maximum temperature yesterday: 82 °F (at 2:23 PM)
Minimum temperature yesterday: 63 °F (at 5:45 AM)
Average temperature yesterday: 73 °F

Past Weeks' High & Low Weather Summary

 TemperatureHumidityPressure
High84 °F (Apr 23, 4:46 PM)88% (Apr 15, 6:46 AM)30.38 "Hg (Apr 15, 6:46 AM)
Low54 °F (Apr 11, 7:20 AM)16% (Apr 25, 3:48 PM)29.57 "Hg (Apr 25, 3:48 PM)
Average68 °F47%30.13 "Hg
* Reported Apr 11 7:20 AM — Apr 26 7:21 AM, Mexico City, Weather by CustomWeather, © 2015

Note: Actual official high and low records may vary slightly from our data, if they occured in-between our weather recording intervals... More about our weather records

Advertising

Mexico City weather history for previous 24 hours

 ConditionsComfort  
Time TempWeatherWind HumidityBarometerVisibility
7:21 AM
Sun, Apr 26
61 °FClear.3 mph55%30.25 "Hg7 mi
5:46 AM63 °FClear.No wind52%30.24 "Hg7 mi
4:45 AM64 °FClear.No wind49%30.23 "Hg7 mi
3:51 AM66 °FClear.5 mph46%29.58 "Hg8 mi
2:43 AM66 °FClear.3 mph46%30.25 "Hg8 mi
12:45 AM68 °FClear.5 mph53%29.66 "Hg8 mi
10:45 PM
Sat, Apr 25
72 °FPassing clouds.5 mph33%30.27 "Hg12 mi
8:45 PM73 °FSunny.9 mph31%30.21 "Hg12 mi
7:46 PM75 °FSunny.13 mph27%30.19 "Hg10 mi
7:22 PM77 °FSleet. Cloudy.N/A24%30.18 "HgN/A
5:45 PM82 °FSunny.9 mph16%30.17 "Hg10 mi
4:45 PM82 °FPassing clouds.10 mph16%30.18 "Hg10 mi
3:48 PM82 °FPassing clouds.17 mph16%29.57 "Hg8 mi
2:46 PM82 °FPassing clouds.17 mph17%30.24 "Hg8 mi
2:23 PM82 °FSleet. Cloudy.N/A19%30.24 "HgN/A
1:43 PM79 °FPassing clouds.8 mph24%30.27 "Hg8 mi
12:36 PM77 °FScattered clouds.8 mph30%30.30 "Hg6 mi
10:20 AM70 °FPassing clouds.3 mph50%30.34 "Hg5 mi
9:20 AM66 °FPassing clouds.5 mph56%30.34 "Hg5 mi
8:20 AM64 °FPassing clouds.6 mph56%30.33 "Hg5 mi
Weather by CustomWeather, © 2015

See weather overviewHow to use our weather pages